Flag for Japan Weather past 2 weeks in Fukuoka, Japan

Now
70 °F

Sunny.


Feels Like: 70 °F
Forecast: 56 / 75 °F
Wind: 14 mph from South

Location: Fukuoka Airport

Current Time: Apr 26, 2015 at 10:59:40 AM

Latest Report: Apr 26, 2015 at 10:00 AM


Visibility: 10 mi

Pressure: 30.15 "Hg

Humidity: 25%

Dew point: 32 °F

Location of FukuokaLocation

Historic Weather in Fukuoka — Graph

°F

Fukuoka temperature yesterday

Maximum temperature yesterday: 70 °F (at 12:00 PM)
Minimum temperature yesterday: 52 °F (at 4:30 AM)
Average temperature yesterday: 61 °F

Past Weeks' High & Low Weather Summary

 TemperatureHumidityPressure
High77 °F (Apr 18, 1:30 PM)100% (Apr 20, 6:00 AM)30.27 "Hg (Apr 20, 6:00 AM)
Low46 °F (Apr 18, 6:00 AM)11% (Apr 18, 1:30 PM)29.53 "Hg (Apr 20, 2:00 AM)
Average60 °F65%29.97 "Hg
* Reported Apr 11 9:00 AM — Apr 26 9:30 AM, Fukuoka, Weather by CustomWeather, © 2015

Note: Actual official high and low records may vary slightly from our data, if they occured in-between our weather recording intervals... More about our weather records

Advertising

Fukuoka weather history for previous 24 hours

 ConditionsComfort  
Time TempWeatherWind HumidityBarometerVisibility
9:30 AM
Sun, Apr 26
70 °FSunny.13 mph25%30.12 "Hg10 mi
9:00 AM68 °FSunny.12 mph26%30.12 "Hg10 mi
8:30 AM64 °FSunny.12 mph37%30.15 "Hg10 mi
8:00 AM63 °FSunny.12 mph39%30.15 "Hg10 mi
7:30 AM59 °FSunny.7 mph51%30.15 "Hg10 mi
7:00 AM55 °FSunny.6 mph59%30.12 "Hg10 mi
6:00 AM52 °FSunny.3 mph72%30.12 "Hg10 mi
5:30 AM52 °FClear.2 mph77%30.12 "Hg10 mi
5:00 AM52 °FClear.5 mph77%30.09 "Hg10 mi
4:30 AM52 °FClear.5 mph82%30.09 "Hg10 mi
4:00 AM52 °FClear.3 mph77%30.09 "Hg10 mi
3:30 AM52 °FClear.5 mph77%30.09 "Hg10 mi
3:00 AM52 °FClear.3 mph82%30.09 "Hg10 mi
2:30 AM54 °FClear.2 mph77%30.09 "Hg10 mi
2:00 AM54 °FClear.2 mph77%30.09 "Hg10 mi
1:30 AM54 °FClear.3 mph72%30.12 "Hg10 mi
1:00 AM54 °FClear.1 mph82%30.12 "Hg10 mi
12:30 AM55 °FClear.1 mph77%30.12 "Hg10 mi
12:00 AM55 °FClear.2 mph82%30.12 "Hg10 mi
11:30 PM
Sat, Apr 25
55 °FClear.2 mph77%30.12 "Hg10 mi
11:00 PM57 °FClear.3 mph72%30.12 "Hg10 mi
10:30 PM57 °FClear.3 mph77%30.12 "Hg10 mi
10:00 PM59 °FPassing clouds.3 mph77%30.12 "HgN/A
9:30 PM59 °FClear.2 mph77%30.12 "Hg10 mi
9:00 PM61 °FPassing clouds.5 mph77%30.12 "HgN/A
8:30 PM61 °FPassing clouds.3 mph77%30.09 "HgN/A
8:00 PM61 °FPassing clouds.5 mph77%30.09 "HgN/A
7:30 PM61 °FClear.6 mph77%30.09 "Hg10 mi
7:00 PM63 °FClear.7 mph68%30.07 "Hg10 mi
6:30 PM63 °FSunny.9 mph68%30.07 "Hg10 mi
6:00 PM64 °FSunny.9 mph68%30.07 "Hg10 mi
5:30 PM66 °FSunny.8 mph60%30.07 "Hg10 mi
5:00 PM66 °FPassing clouds.9 mph60%30.07 "HgN/A
4:30 PM68 °FSunny.9 mph56%30.07 "Hg10 mi
4:00 PM68 °FPassing clouds.10 mph56%30.07 "HgN/A
3:30 PM66 °FPassing clouds.12 mph56%30.07 "HgN/A
3:00 PM66 °FPassing clouds.12 mph56%30.07 "HgN/A
2:30 PM68 °FPassing clouds.10 mph53%30.09 "HgN/A
2:00 PM68 °FPassing clouds.12 mph53%30.09 "HgN/A
1:30 PM68 °FPassing clouds.10 mph49%30.09 "HgN/A
1:00 PM68 °FPassing clouds.9 mph49%30.09 "HgN/A
12:30 PM68 °FPassing clouds.10 mph46%30.09 "HgN/A
12:00 PM70 °FPassing clouds.10 mph43%30.12 "HgN/A
11:30 AM68 °FPassing clouds.10 mph40%30.12 "HgN/A
11:00 AM68 °FSunny.12 mph38%30.12 "Hg10 mi
10:30 AM68 °FPassing clouds.9 mph40%30.12 "HgN/A
10:00 AM68 °FPassing clouds.9 mph40%30.12 "HgN/A
Weather by CustomWeather, © 2015

See weather overviewHow to use our weather pages